{"data":{"norad_id":44859,"epoch":"2026-09-20T02:36:34.396416Z","epoch_age_seconds":95503,"freshness":"FRESH","line1":"1 44859U 19089H   26263.10873144  .00001911  00000+0  11332-3 0  9998","line2":"2 44859  36.9661 186.0663 0006178 296.7882  63.2232 15.12239735372364","mean_motion":15.12239735,"eccentricity":0.0006178,"inclination_deg":36.9661,"raan_deg":186.0663,"arg_perigee_deg":296.7882,"mean_anomaly_deg":63.2232,"bstar":0.00011332,"rev_number":37236,"period_min":95.222997165856,"perigee_km":525.10377368149,"apogee_km":533.63869085327,"semimajor_km":6907.5082322674,"source":"CELESTRAK","updated_at":"2026-09-20T09:00:14.567628Z"}}